Regional Weather Roundup
Issued by NWS

Home | Current Version | Previous Version | Graphics & Text | Print | Product List | Glossary Off
Versions: 1 2 3 4 5 6 7 8 9 10 11 12 13 14 15 16 17 18 19 20 21 22 23 24 25 26 27 28 29 30 31 32 33 34 35 36 37 38 39 40 41 42 43 44 45 46 47 48 49 50

000
ASUS43 KMKX 280900
RWRWI

WISCONSIN REGIONAL WEATHER ROUNDUP
NATIONAL WEATHER SERVICE MILWAUKEE/SULLIVAN WI
400 AM CDT FRI AUG 28 2015

NOTE: "FAIR" INDICATES FEW OR NO CLOUDS BELOW 12,000 FEET WITH NO
SIGNIFICANT WEATHER AND/OR OBSTRUCTIONS TO VISIBILITY.

WIZ001-002-006>008-014>016-023>028-281000-
NORTHWEST WISCONSIN

CITY           SKY/WX    TMP DP  RH WIND       PRES   REMARKS
SUPERIOR ARPT  MOCLDY    53  51  92 CALM      29.98S
ASHLAND        PTCLDY    62  60  93 SW6       29.99S
HAYWARD        MOCLDY    60  57  89 S6        30.02R
SIREN          CLEAR     63  58  83 SW9       30.00S
CUMBERLAND     PTCLDY    55  55 100 S6        30.02S
RICE LAKE      PTCLDY    58  56  92 CALM      30.04S
CHETEK         PTCLDY   N/A N/A N/A E5        30.03F
LADYSMITH      PTCLDY    59  58  94 S5        30.06S
EAU CLAIRE     CLOUDY    62  58  86 S7        30.03F
MENOMONIE      CLOUDY    62  60  91 S6        30.03F
NEW RICHMOND   MOCLDY    61  59  94 S6        30.02R
OSCEOLA        MOCLDY    61  61 100 S6        30.03S
$$

WIZ003>005-009-010-017-018-281000-
NORTH CENTRAL WISCONSIN

CITY           SKY/WX    TMP DP  RH WIND       PRES   REMARKS
MANITOWISH WTR CLOUDY    60  59  97 S3        30.04S
ARBOR VITAE    MOCLDY    62  59  89 S3        30.05F
WOODRUFF       MOCLDY    62  59  89 S3        30.05F
RHINELANDER    PTCLDY    60  56  86 S6        30.06F
EAGLE RIVER    MOCLDY    59  57  94 SW5       30.06S
LAND O LAKES   CLOUDY    58  57  96 S3        30.06S
PHILLIPS       CLEAR     58  57  96 CALM      30.04S
TOMAHAWK       MOCLDY    58  56  92 CALM      30.06F
MEDFORD        MOCLDY    59  57  93 S5        30.06S
MERRILL        MOCLDY    57  57  99 SW3       30.07F
$$

WIZ029-030-035-036-043>047-281000-
CENTRAL WISCONSIN

CITY           SKY/WX    TMP DP  RH WIND       PRES   REMARKS
WAUSAU         MOCLDY    60  57  89 CALM      30.06S
MOSINEE        MOCLDY    55  55 100 S7        30.08F
MARSHFIELD     MOCLDY    58  54  86 SW5       30.08R
STEVENS POINT  MOCLDY    57  55  94 S5        30.09S
WAUPACA        MOCLDY    60  59  96 CALM      30.09S
WAUTOMA        NOT AVBL
WISC RAPIDS    MOCLDY    59  55  87 SW5       30.09S
CAMP DOUGLAS   NOT AVBL
$$

WIZ011>013-019>022-031-037>040-048>050-281000-
NORTHEAST WISCONSIN

CITY           SKY/WX    TMP DP  RH WIND       PRES   REMARKS
ANTIGO         MOCLDY    57  56  97 S6        30.08F
SHAWANO        MOCLDY    60  57  89 CALM      30.09S
OCONTO         MOCLDY    57  57 100 CALM      30.08F
STURGEON BAY   CLEAR     57  52  82 S7        30.11F
GREEN BAY      MOCLDY    57  55  93 S5        30.09S
MANITOWOC      NOT AVBL
APPLETON       MOCLDY    59  54  82 S3        30.07F
CLINTONVILLE   MOCLDY    55  54  94 CALM      30.08S
OSHKOSH        PTCLDY    58  53  84 S7        30.09S
$$

WIZ032>034-041-042-053>061-281000-
SOUTHWEST WISCONSIN

CITY           SKY/WX    TMP DP  RH WIND       PRES   REMARKS
LA CROSSE      CLOUDY    65  59  81 S7        30.07R
SPARTA         CLOUDY    60  57  89 CALM      30.09R
VIROQUA        CLOUDY    60  60  99 S6        30.09R
BOSCOBEL       CLOUDY    59  58  96 CALM      30.09R
PRAIRIE DU CHI CLOUDY    63  58  83 CALM      30.08S
PLATTEVILLE    CLOUDY    61  59  93 SE5       30.09F
$$

WIZ056-057-062-063-064-067-068-281000-
SOUTH CENTRAL WISCONSIN

CITY           SKY/WX    TMP DP  RH WIND       PRES   REMARKS
REEDSBURG      MOCLDY    58  56  93 S3        30.09S
BARABOO/DELLS  MOCLDY    58  55  88 S5        30.09S
LONE ROCK      NOT AVBL
MINERAL POINT  CLOUDY    61  59  94 SE5       30.09F
MADISON        MOCLDY    60  55  83 S6        30.10S
MIDDLETON      MOCLDY    60  55  84 S5        30.10S
WATERTOWN      PTCLDY    53  53 100 CALM      30.11R
MONROE         CLOUDY    59  55  88 S9        30.10F
JANESVILLE     PTCLDY    55  54  94 CALM      30.10S
$$

WIZ051-052-058>065-066-070>072-281000-
SOUTHEAST WISCONSIN

CITY           SKY/WX    TMP DP  RH WIND       PRES   REMARKS
MILWAUKEE      CLEAR     59  55  87 S6        30.12F
WAUKESHA       CLEAR     55  54  94 S5        30.13S
MILWAUKEE/TIMM PTCLDY    57  52  82 S3        30.12F
RACINE         CLEAR     60  56  86 S5        30.13F
BURLINGTON     CLEAR     47  47  99 CALM      30.12S FOG
KENOSHA        CLEAR     56  53  90 S6        30.12S FOG
FOND DU LAC    MOCLDY    55  52  89 S6        30.10S
SHEBOYGAN      MOCLDY    55  52  89 CALM      30.10F
WEST BEND      PTCLDY    55  52  88 CALM      30.11F
JUNEAU         MOCLDY    55  51  87 SE3       30.12S
$$

LSZ147-162-281000-
LAKE SUPERIOR

STATION/POSITION TIME  TEMP    WIND        PRES    WAVE
                       AIR SEA DIR/SP/G            HT/PER
                 (UTC) (F)     (DEG/KT/KT) (MB)    (FT/S)
W MID LAKE BUOY  0750   58 55  200/  6/  8 1015.1R   0
DEVILS ISLAND    0800   63     220/  5/  6 1015.0R
PORT WING        0840   57      20/  3/  3 1015.6R
SAXON HARBOR     0840   68     190/  6/ 10 1015.2R
$$

LMZ867-665-643>646-281000-
LAKE MICHIGAN

STATION/POSITION TIME  TEMP    WIND        PRES    WAVE
                       AIR SEA DIR/SP/G            HT/PER
                 (UTC) (F)     (DEG/KT/KT) (MB)    (FT/S)
CHAMBERS ISLAND  0800   61     180/  4/ 10 1018.3S
S GREEN BAY BUOY 0800   63     200/ 12/ 16 1020.2
N MID LAKE BUOY  0750   63 64  210/ 19/ 23 1018.2S   3/ 4
NORTHPORT PIER   0800   61     180/  4/  7 1018.3S
SISTER BAY       0849   61     190/  7/  9   N/A
ALGOMA LAKESHORE 0844          150/  1/  3   N/A
KEWAUNEE LAKESHO 0800   60     210/  6/ 10 1018.2F
SHEBOYGAN LAKESH 0800   58     190/  6/  6 1020.1R
PORT WASHINGTON  0800   52      CALM  /  1 1020.3F
ATWATER BUOY     0800   53 47  170/  6/  6 1021.1F
MILWAUKEE LAKESH 0800   58     160/  1/  1   N/A
S MID LAKE BUOY  0750   67 68  170/ 10/ 14 1020.2S   1
KENOSHA   LAKESH 0800   62     180/  6/  7 1019.6S
$$

TC  - TEMPERATURE IN CELSIUS
VSB - VISIBILITY IN STATUTE MILES
WCI - WIND CHILL INDEX
HX  - HEAT INDEX




USA.gov is the U.S. government's official web portal to all federal, state and local government web resources and services.